DW7447 Weather Reports


Display with metric or nautical units.
time (UTC)temp
F
wind
direction
speed
MPH
gust
MPH
rain 1hr
in
rain 24hr
in
rain mn
in
humidity
%
barometer
mb
20260905202549 59 203 7.0 13.0 0.00 0.00 0.00 78 1023.2
20260905202050 59 166 4.0 8.0 0.00 0.00 0.00 78 1023.5
20260905201049 60 144 4.0 11.0 0.00 0.00 0.00 78 1023.7
20260905200049 60 241 6.0 11.0 0.00 0.00 0.00 78 1023.7
20260905195548 60 172 4.0 8.0 0.00 0.00 0.00 78 1023.8
20260905195049 60 206 3.0 8.0 0.00 0.00 0.00 78 1023.7
20260905194548 60 230 3.0 8.0 0.00 0.00 0.00 78 1023.8
20260905194050 60 169 3.0 9.0 0.00 0.00 0.00 77 1023.7
20260905193550 60 207 4.0 13.0 0.00 0.00 0.00 77 1023.7
20260905193049 60 238 8.0 13.0 0.00 0.00 0.00 77 1023.5
20260905192550 60 204 5.0 8.0 0.00 0.00 0.00 76 1023.4
20260905192054 60 176 5.0 9.0 0.00 0.00 0.00 76 1023.3
20260905191549 60 220 4.0 9.0 0.00 0.00 0.00 76 1023.1
20260905190548 60 193 5.0 8.0 0.00 0.00 0.00 76 1023.4
20260905185049 61 207 5.0 12.0 0.00 0.00 0.00 75 1023.3
20260905184550 61 223 6.0 11.0 0.00 0.00 0.00 75 1023.2
20260905184049 61 183 4.0 9.0 0.00 0.00 0.00 74 1023.1
20260905183549 61 209 5.0 12.0 0.00 0.00 0.00 74 1023.0
20260905183047 62 220 5.0 12.0 0.00 0.00 0.00 73 1022.9
20260905182547 62 199 4.0 7.0 0.00 0.00 0.00 73 1023.1
20260905182050 62 209 4.0 7.0 0.00 0.00 0.00 72 1023.1
20260905181549 62 210 4.0 12.0 0.00 0.00 0.00 72 1023.1
20260905181049 62 230 6.0 14.0 0.00 0.00 0.00 71 1023.1
20260905180549 63 220 7.0 19.0 0.00 0.00 0.00 71 1023.0
20260905180044 63 221 11.0 19.0 0.00 0.00 0.00 71 1023.2
20260905175531 63 237 6.0 12.0 0.00 0.00 0.00 70 1023.0
20260905175034 64 226 8.0 14.0 0.00 0.00 0.00 70 1022.9
20260905174007 64 235 4.0 14.0 0.00 0.00 0.00 65 1023.0
20260905173505 64 221 5.0 14.0 0.00 0.00 0.00 65 1022.8
20260905173005 65 228 6.0 18.0 0.00 0.00 0.00 65 1022.8
20260905172503 65 240 7.0 18.0 0.00 0.00 0.00 64 1022.7
20260905171959 65 230 6.0 16.0 0.00 0.00 0.00 64 1022.6
20260905171448 65 264 6.0 13.0 0.00 0.00 0.00 64 1022.5
20260905170947 65 248 5.0 9.0 0.00 0.00 0.00 64 1022.5
20260905170446 65 200 5.0 11.0 0.00 0.00 0.00 63 1022.5
20260905165935 66 251 5.0 11.0 0.00 0.00 0.00 62 1022.5
20260905165434 66 226 5.0 11.0 0.00 0.00 0.00 62 1022.4
20260905164931 66 207 6.0 11.0 0.00 0.00 0.00 62 1022.3
20260905164427 66 292 6.0 11.0 0.00 0.00 0.00 63 1022.2
20260905163924 66 296 6.0 12.0 0.00 0.00 0.00 62 1022.1
20260905163422 66 303 5.0 14.0 0.00 0.00 0.00 62 1022.1
20260905162908 66 302 6.0 14.0 0.00 0.00 0.00 62 1022.3
20260905162406 66 233 2.0 15.0 0.00 0.00 0.00 62 1022.2
20260905161904 66 241 7.0 15.0 0.00 0.00 0.00 62 1022.0
20260905161405 66 226 4.0 12.0 0.00 0.00 0.00 62 1022.0
20260905160904 66 241 6.0 16.0 0.00 0.00 0.00 62 1022.0
20260905160348 67 217 6.0 16.0 0.00 0.00 0.00 61 1021.9
20260905155348 67 257 5.0 12.0 0.00 0.00 0.00 62 1022.0
20260905154848 67 234 4.0 15.0 0.00 0.00 0.00 62 1022.0
20260905153848 66 264 8.0 16.0 0.00 0.00 0.00 61 1022.0
20260905153348 66 237 5.0 15.0 0.00 0.00 0.00 61 1022.0
20260905152850 66 264 10.0 15.0 0.00 0.00 0.00 62 1021.9
20260905152349 65 243 6.0 15.0 0.00 0.00 0.00 64 1021.9
20260905151349 66 264 12.0 16.0 0.00 0.00 0.00 63 1022.0
20260905150354 66 233 7.0 14.0 0.00 0.00 0.00 62 1022.0
20260905145348 66 275 8.0 15.0 0.00 0.00 0.00 62 1021.9
20260905144835 66 241 7.0 15.0 0.00 0.00 0.00 62 1022.0
20260905144333 66 261 7.0 15.0 0.00 0.00 0.00 61 1021.9
20260905143833 66 296 8.0 15.0 0.00 0.00 0.00 62 1021.9
20260905143308 66 265 4.0 14.0 0.00 0.00 0.00 62 1021.8
20260905142804 66 278 7.0 15.0 0.00 0.00 0.00 62 1021.8
20260905142301 67 231 6.0 16.0 0.00 0.00 0.00 60 1021.7
20260905141804 67 275 4.0 18.0 0.00 0.00 0.00 60 1021.7
20260905141301 68 251 9.0 18.0 0.00 0.00 0.00 59 1021.6
20260905140802 68 261 9.0 20.0 0.00 0.00 0.00 59 1021.6
20260905135745 68 261 10.0 16.0 0.00 0.00 0.00 59 1021.4
20260905135247 67 278 7.0 17.0 0.00 0.00 0.00 58 1021.4
20260905134746 67 234 8.0 17.0 0.00 0.00 0.00 58 1021.4
20260905134249 67 258 10.0 17.0 0.00 0.00 0.00 58 1021.4
20260905133246 68 262 10.0 20.0 0.00 0.00 0.00 61 1021.4
20260905132747 67 238 6.0 17.0 0.00 0.00 0.00 61 1021.4
20260905132248 67 302 6.0 16.0 0.00 0.00 0.00 59 1021.3
20260905131747 68 265 7.0 17.0 0.00 0.00 0.00 59 1021.3
20260905131246 68 258 9.0 17.0 0.00 0.00 0.00 60 1021.2
20260905130747 67 271 8.0 19.0 0.00 0.00 0.00 61 1021.1
20260905130250 67 212 10.0 19.0 0.00 0.00 0.00 62 1021.1
20260905125748 65 272 10.0 18.0 0.00 0.00 0.00 63 1021.1
20260905125248 65 313 11.0 20.0 0.00 0.00 0.00 62 1021.0
20260905124749 65 276 13.0 20.0 0.00 0.00 0.00 63 1021.1
20260905123746 65 288 8.0 19.0 0.00 0.00 0.00 64 1021.1
20260905123246 64 261 12.0 19.0 0.00 0.00 0.00 64 1021.3
20260905122749 64 274 11.0 18.0 0.00 0.00 0.00 64 1021.2
20260905121750 64 282 7.0 17.0 0.00 0.00 0.00 62 1021.0
20260905121249 64 258 10.0 17.0 0.00 0.00 0.00 62 1020.9
20260905120748 65 281 7.0 23.0 0.00 0.00 0.00 62 1020.8
20260905120249 65 221 13.0 24.0 0.00 0.00 0.00 62 1020.7
20260905115748 65 305 12.0 24.0 0.00 0.00 0.00 62 1020.7
20260905115248 65 268 10.0 22.0 0.00 0.00 0.00 65 1020.7
20260905114749 64 268 11.0 22.0 0.00 0.00 0.00 65 1020.6
20260905114249 64 237 13.0 23.0 0.00 0.00 0.00 65 1020.6
20260905113747 64 243 11.0 23.0 0.00 0.00 0.00 65 1020.6
20260905112753 65 264 7.0 17.0 0.00 0.00 0.00 64 1020.6
20260905112250 65 276 8.0 17.0 0.00 0.00 0.00 64 1020.7
20260905111748 65 316 7.0 19.0 0.00 0.00 0.00 63 1020.6
20260905111250 65 307 13.0 19.0 0.00 0.00 0.00 65 1020.6
20260905110746 65 254 10.0 18.0 0.00 0.00 0.00 65 1020.5
20260905105746 65 305 9.0 21.0 0.00 0.00 0.00 64 1020.3
20260905104746 63 254 8.0 18.0 0.00 0.00 0.00 67 1020.3
20260905104249 62 269 10.0 20.0 0.00 0.00 0.00 66 1020.3
20260905103748 63 274 12.0 20.0 0.00 0.00 0.00 64 1020.4
20260905103248 64 288 5.0 21.0 0.00 0.00 0.00 63 1020.2
20260905102747 64 317 4.0 21.0 0.00 0.00 0.00 62 1020.1
20260905102248 65 286 11.0 20.0 0.00 0.00 0.00 62 1020.1
20260905101747 65 269 11.0 20.0 0.00 0.00 0.00 62 1020.0
20260905101249 65 240 7.0 16.0 0.00 0.00 0.00 63 1020.0
20260905100747 64 258 8.0 20.0 0.00 0.00 0.00 64 1019.9
20260905100249 63 278 12.0 20.0 0.00 0.00 0.00 65 1019.8
20260905095746 63 265 8.0 26.0 0.00 0.00 0.00 64 1019.7
20260905095246 63 281 11.0 26.0 0.00 0.00 0.00 66 1019.6
20260905094748 63 272 11.0 21.0 0.00 0.00 0.00 66 1019.6
20260905094249 62 219 9.0 19.0 0.00 0.00 0.00 66 1019.4
20260905093749 62 261 8.0 20.0 0.00 0.00 0.00 66 1019.4
20260905093246 62 237 14.0 20.0 0.00 0.00 0.00 66 1019.3
20260905092748 62 252 9.0 20.0 0.00 0.00 0.00 68 1019.3
20260905092250 62 257 15.0 20.0 0.00 0.00 0.00 69 1019.4
20260905091749 62 264 8.0 16.0 0.00 0.00 0.00 70 1019.3
20260905091248 62 266 9.0 16.0 0.00 0.00 0.00 70 1019.2
20260905090747 62 238 10.0 18.0 0.00 0.00 0.00 70 1019.1
20260905085748 61 276 11.0 22.0 0.00 0.00 0.00 70 1018.9
20260905084248 60 251 7.0 19.0 0.00 0.00 0.00 72 1018.8
20260905083748 60 244 12.0 21.0 0.00 0.00 0.00 72 1018.6
20260905083248 59 226 8.0 21.0 0.00 0.00 0.00 72 1018.7
20260905082748 59 319 11.0 21.0 0.00 0.00 0.00 74 1018.4
20260905082248 59 274 11.0 21.0 0.00 0.00 0.00 74 1018.4
20260905081747 59 299 10.0 28.0 0.00 0.00 0.00 74 1018.4
20260905081248 58 264 9.0 28.0 0.00 0.00 0.00 74 1018.2
20260905080747 58 250 16.0 22.0 0.00 0.00 0.00 76 1018.3
20260905080246 58 243 10.0 22.0 0.00 0.00 0.00 76 1018.2
20260905075745 58 217 12.0 20.0 0.00 0.00 0.00 77 1018.0
20260905075245 57 227 11.0 21.0 0.00 0.00 0.00 78 1018.0
20260905074754 57 245 11.0 22.0 0.00 0.00 0.00 79 1018.1
20260905074246 57 281 11.0 22.0 0.00 0.00 0.00 79 1018.0
20260905072749 56 250 7.0 19.0 0.00 0.00 0.00 81 1017.8
20260905072248 56 278 10.0 19.0 0.00 0.00 0.00 81 1017.5
20260905071747 56 234 10.0 17.0 0.00 0.00 0.00 82 1017.5
20260905071248 55 237 11.0 17.0 0.00 0.00 0.00 82 1017.4
20260905070734 55 230 7.0 14.0 0.00 0.00 0.00 83 1017.5
20260905070225 55 223 9.0 14.0 0.00 0.00 0.00 83 1017.4
20260905065153 54 254 6.0 13.0 0.00 0.00 0.00 83 1017.4
20260905064648 54 255 6.0 13.0 0.00 0.00 0.00 83 1017.2
20260905064147 54 207 8.0 13.0 0.00 0.00 0.00 83 1017.2
20260905063648 54 220 9.0 15.0 0.00 0.00 0.00 83 1017.2
20260905063146 54 207 10.0 19.0 0.00 0.00 0.00 83 1017.1
20260905062647 54 195 8.0 19.0 0.00 0.00 0.00 83 1016.9
20260905061644 54 230 6.0 16.0 0.00 0.00 0.00 83 1016.8
20260905061135 54 252 7.0 17.0 0.00 0.00 0.00 84 1016.9
20260905055632 54 214 6.0 12.0 0.00 0.00 0.00 84 1016.6
20260905055132 54 221 6.0 14.0 0.00 0.00 0.00 84 1016.6
20260905054630 54 233 8.0 14.0 0.00 0.00 0.00 84 1016.3
20260905054133 54 207 5.0 18.0 0.00 0.00 0.00 84 1016.2
20260905053604 54 210 12.0 18.0 0.00 0.00 0.00 84 1016.1
20260905053106 54 247 6.0 13.0 0.00 0.00 0.00 84 1016.2
20260905052608 54 221 8.0 14.0 0.00 0.00 0.00 83 1016.1
20260905052104 54 257 8.0 16.0 0.00 0.00 0.00 83 1016.0
20260905051606 54 244 9.0 17.0 0.00 0.00 0.00 84 1016.0
20260905051105 54 219 7.0 18.0 0.00 0.00 0.00 84 1015.9
20260905050605 54 190 11.0 18.0 0.00 0.00 0.00 84 1015.8
20260905050104 54 202 9.0 17.0 0.00 0.00 0.00 85 1015.7
20260905045557 54 197 9.0 17.0 0.00 0.00 0.00 85 1015.7
20260905045047 54 224 6.0 17.0 0.00 0.00 0.00 85 1015.7
20260905044047 54 224 6.0 15.0 0.00 0.00 0.00 85 1015.5
20260905043543 55 237 8.0 15.0 0.00 0.00 0.00 84 1015.5
20260905043033 55 235 6.0 14.0 0.00 0.00 0.00 84 1015.5
20260905042019 55 235 8.0 14.0 0.00 0.00 0.00 83 1015.5
20260905041509 55 254 10.0 17.0 0.00 0.00 0.00 83 1015.3
20260905041008 55 264 9.0 17.0 0.00 0.00 0.00 83 1015.2
20260905040506 55 261 8.0 15.0 0.00 0.00 0.00 83 1015.2
20260905035503 55 279 8.0 15.0 0.00 0.00 0.00 83 1015.2
20260905035004 55 244 6.0 15.0 0.00 0.00 0.00 83 1015.2
20260905034502 55 251 7.0 13.0 0.00 0.00 0.00 83 1015.2
20260905034004 55 224 5.0 11.0 0.00 0.00 0.00 83 1015.2
20260905033452 55 251 7.0 12.0 0.00 0.00 0.00 84 1015.1
20260905032953 55 224 5.0 12.0 0.00 0.00 0.00 84 1015.1
20260905032446 55 237 7.0 13.0 0.00 0.00 0.00 83 1014.9
20260905031946 55 210 4.0 13.0 0.00 0.00 0.00 83 1014.9
20260905025947 56 224 6.0 15.0 0.00 0.00 0.00 82 1014.7
20260905025446 56 292 6.0 15.0 0.00 0.00 0.00 82 1014.6
20260905024947 56 228 8.0 18.0 0.00 0.00 0.00 82 1014.6
20260905023945 56 269 6.0 19.0 0.00 0.00 0.00 82 1014.3
20260905022945 56 250 9.0 18.0 0.00 0.00 0.00 83 1014.2
20260905022446 56 244 9.0 18.0 0.00 0.00 0.00 82 1014.2
20260905021947 55 282 10.0 16.0 0.00 0.00 0.00 83 1014.3
20260905021450 55 276 10.0 16.0 0.00 0.00 0.00 83 1014.2
20260905020448 55 234 8.0 17.0 0.00 0.00 0.00 84 1014.2
20260905015947 55 244 6.0 15.0 0.00 0.00 0.00 84 1014.1
20260905015448 55 290 5.0 15.0 0.00 0.00 0.00 84 1014.0
20260905014446 55 227 4.0 12.0 0.00 0.00 0.00 84 1013.9
20260905013944 55 244 6.0 14.0 0.00 0.00 0.00 84 1013.9
20260905013447 55 227 6.0 14.0 0.00 0.00 0.00 84 1013.9
20260905012946 55 265 5.0 13.0 0.00 0.00 0.00 84 1013.8
20260905012447 55 275 6.0 13.0 0.00 0.00 0.00 84 1013.8
20260905011946 55 240 7.0 15.0 0.00 0.01 0.00 86 1013.8
20260905010947 55 224 12.0 21.0 0.00 0.01 0.00 86 1013.7
20260905010448 55 220 6.0 13.0 0.00 0.01 0.00 86 1013.6
20260905005945 56 240 7.0 12.0 0.00 0.01 0.00 86 1013.6
20260905005448 56 244 7.0 12.0 0.00 0.01 0.00 86 1013.6
20260905004447 56 227 7.0 14.0 0.00 0.02 0.00 86 1013.5
20260905003947 56 238 4.0 13.0 0.00 0.02 0.00 86 1013.5
20260905003448 56 289 6.0 13.0 0.00 0.02 0.00 86 1013.5
20260905002947 56 214 4.0 17.0 0.00 0.02 0.00 86 1013.4
20260905002447 56 212 10.0 17.0 0.00 0.02 0.00 85 1013.2
20260905001946 56 271 4.0 15.0 0.00 0.02 0.00 85 1013.0
20260905001447 56 234 8.0 15.0 0.00 0.03 0.00 86 1013.0
20260905000946 56 259 9.0 15.0 0.00 0.03 0.00 86 1013.0
20260905000449 56 210 7.0 15.0 0.00 0.04 0.00 85 1013.0
20260904235947 56 204 9.0 15.0 0.00 0.05 0.00 85 1012.9
20260904235445 56 251 8.0 16.0 0.00 0.05 0.00 85 1012.8
20260904234947 56 230 8.0 16.0 0.00 0.06 0.00 85 1012.7
20260904233946 57 207 8.0 14.0 0.00 0.06 0.00 85 1012.6
20260904233447 57 190 6.0 13.0 0.00 0.06 0.00 85 1012.6
20260904232948 57 237 6.0 15.0 0.00 0.06 0.00 85 1012.5
20260904232448 57 209 6.0 16.0 0.00 0.06 0.00 85 1012.5
20260904231947 57 227 9.0 16.0 0.00 0.07 0.00 85 1012.5
20260904231449 57 212 9.0 15.0 0.00 0.07 0.00 84 1012.6
20260904230500 57 244 6.0 12.0 0.00 0.07 0.00 84 1012.6
20260904225447 57 219 3.0 13.0 0.00 0.08 0.08 84 1012.7
20260904224946 57 214 5.0 12.0 0.00 0.08 0.08 84 1012.5
20260904223946 58 189 6.0 12.0 0.00 0.09 0.08 84 1012.5
20260904223447 58 254 6.0 12.0 0.00 0.09 0.08 84 1012.4
20260904222947 58 217 6.0 14.0 0.00 0.09 0.08 85 1012.5
20260904222447 58 214 9.0 14.0 0.00 0.09 0.08 85 1012.5
20260904221946 58 250 7.0 12.0 0.00 0.09 0.08 85 1012.6
20260904221447 58 197 6.0 11.0 0.00 0.09 0.08 85 1012.5
20260904220947 58 254 5.0 12.0 0.00 0.09 0.08 85 1012.6
20260904215947 58 241 2.0 8.0 0.00 0.09 0.08 84 1012.4
20260904215445 58 289 5.0 9.0 0.00 0.09 0.08 84 1012.3
20260904214446 58 258 4.0 8.0 0.00 0.09 0.08 83 1012.2
20260904213947 58 221 2.0 12.0 0.00 0.09 0.08 83 1012.1
20260904213446 59 217 6.0 12.0 0.00 0.09 0.08 83 1012.2
20260904212946 59 237 4.0 15.0 0.00 0.09 0.08 83 1012.2
20260904212445 59 210 9.0 15.0 0.00 0.09 0.08 83 1012.0
20260904211937 59 237 7.0 18.0 0.00 0.09 0.08 83 1011.9
20260904210432 59 204 8.0 17.0 0.00 0.10 0.08 82 1011.8
20260904205930 59 254 6.0 17.0 0.00 0.10 0.08 82 1011.6
20260904205433 59 195 5.0 16.0 0.00 0.10 0.08 82 1011.6
20260904204933 59 261 9.0 16.0 0.00 0.10 0.08 82 1011.5
20260904203432 60 189 8.0 18.0 0.00 0.10 0.08 82 1011.7